Weather History for KGIF - August, 2013

Change the Weather History Date:

Sunday, August 18, 2013

  Actual Average Record
Temperature  
Mean Temperature 82 °F -  
Max Temperature 91 °F 92 °F 98 °F (2005)
Min Temperature 73 °F 72 °F 67 °F (1972)
Cooling Degree Days 17    
Growing Degree Days 32 (Base 50)    
Moisture  
Dew Point 73 °F    
Average Humidity 85    
Maximum Humidity 96    
Minimum Humidity 53    
Precipitation  
Precipitation 0.84 in - - ()
Sea Level Pressure  
Sea Level Pressure 30.08 in    
Wind  
Wind Speed 8 mph (East)    
Max Wind Speed 17 mph    
Max Gust Speed 30 mph    
Visibility 7 miles    
Events Rain    
Averages and records for this station are not official NWS values.
T = Trace of Precipitation, MM = Missing Value Source: NWS Daily Summary

Daily Weather History Graph

Daily Weather History Graph

Search for Another Location

Airport or City:

Trip Planner

Search our weather history database for the weather conditions in past years. The results will help you decide how hot, cold, wet, or windy it might be!

Date:

Astronomy

Aug. 18, 2013 Rise Set
Actual Time 6:58 AM EDT 8:02 PM EDT
Civil Twilight 6:34 AM EDT 8:26 PM EDT
Nautical Twilight 6:05 AM EDT 8:55 PM EDT
Astronomical Twilight 5:35 AM EDT 9:25 PM EDT
Moon 6:02 PM EDT (8/18) 4:13 AM EDT (8/18)
Length of Visible Light 13h 52m
Length of Day
13h 03m
Waxing Gibbous, 92% of the Moon is Illuminated
Aug 18
Waxing Gibbous
Aug 20
Full
Aug 28
Last Quarter
Sep 5
New
Sep 12
First Quarter

Hourly Weather History & Observations

Time (EDT) Temp. Heat Index Dew Point Humidity Pressure Visibility Wind Dir Wind Speed Gust Speed Precip Events Conditions
12:53 AM 79.0 °F - 75.9 °F 90% 30.10 in 10.0 mi ESE 4.6 mph - N/A   Clear
1:53 AM 78.1 °F - 75.9 °F 93% 30.09 in 10.0 mi ESE 6.9 mph - N/A   Clear
2:53 AM 78.1 °F - 75.9 °F 93% 30.08 in 10.0 mi ESE 5.8 mph - N/A   Clear
3:53 AM 78.1 °F - 75.9 °F 93% 30.07 in 10.0 mi ESE 5.8 mph - N/A   Clear
4:53 AM 78.1 °F - 75.9 °F 93% 30.07 in 10.0 mi ESE 6.9 mph - N/A   Clear
5:53 AM 77.0 °F - 75.9 °F 96% 30.06 in 10.0 mi NNE 3.5 mph - N/A   Clear
6:53 AM 77.0 °F - 75.0 °F 94% 30.07 in 10.0 mi East 5.8 mph - N/A   Clear
7:53 AM 79.0 °F - 75.9 °F 90% 30.09 in 10.0 mi East 6.9 mph - N/A   Clear
8:53 AM 81.0 °F 86.7 °F 75.0 °F 82% 30.09 in 10.0 mi East 10.4 mph - N/A   Clear
9:53 AM 82.9 °F 90.2 °F 75.0 °F 77% 30.11 in 10.0 mi ESE 9.2 mph - N/A   Partly Cloudy
10:53 AM 87.1 °F 95.4 °F 73.9 °F 65% 30.11 in 10.0 mi East 9.2 mph - N/A   Mostly Cloudy
11:53 AM 88.0 °F 95.6 °F 73.0 °F 61% 30.11 in 10.0 mi ESE 12.7 mph - N/A   Mostly Cloudy
12:53 PM 91.0 °F 98.2 °F 72.0 °F 53% 30.09 in 10.0 mi ESE 11.5 mph - N/A   Scattered Clouds
1:53 PM 89.1 °F 95.0 °F 71.1 °F 55% 30.07 in 10.0 mi SE 16.1 mph 21.9 mph N/A   Mostly Cloudy
2:26 PM 78.1 °F - 73.0 °F 84% 30.10 in 2.0 mi East 6.9 mph - 0.11 in Rain Heavy Rain
2:32 PM 78.1 °F - 73.9 °F 87% 30.09 in 3.0 mi East 5.8 mph - 0.13 in Rain Light Rain
2:53 PM 80.1 °F 84.5 °F 73.9 °F 81% 30.09 in 10.0 mi North - - 0.13 in   Overcast
3:53 PM 82.0 °F 87.4 °F 73.0 °F 74% 30.06 in 10.0 mi SSE 17.3 mph 23.0 mph 0.00 in   Mostly Cloudy
4:04 PM 75.9 °F - 70.0 °F 82% 30.07 in 2.0 mi SSE 17.3 mph 29.9 mph 0.05 in Rain Rain
4:06 PM 75.0 °F - 69.1 °F 82% 30.07 in 1.2 mi SE 12.7 mph 29.9 mph 0.13 in Rain Rain
4:10 PM 75.0 °F - 70.0 °F 84% 30.07 in 0.8 mi SSE 8.1 mph - 0.26 in Rain Heavy Rain
4:18 PM 75.9 °F - 71.1 °F 85% 30.06 in 1.0 mi ESE 10.4 mph - 0.37 in Rain Heavy Rain
4:24 PM 75.0 °F - 70.0 °F 84% 30.06 in 2.0 mi ENE 10.4 mph - 0.37 in Rain Light Rain
4:31 PM 73.9 °F - 70.0 °F 87% 30.07 in 1.0 mi East 16.1 mph - 0.41 in Rain Light Rain
4:41 PM 75.0 °F - 72.0 °F 90% 30.06 in 2.0 mi East 11.5 mph - 0.48 in Rain Light Rain
4:43 PM 75.0 °F - 72.0 °F 90% 30.06 in 3.0 mi ENE 10.4 mph - 0.49 in Rain Light Rain
4:53 PM 75.0 °F - 73.0 °F 94% 30.05 in 7.0 mi ENE 8.1 mph - 0.49 in Rain Light Rain
5:53 PM 78.1 °F - 73.0 °F 84% 30.04 in 10.0 mi Variable 3.5 mph - 0.01 in   Clear
6:53 PM 79.0 °F - 73.9 °F 84% 30.06 in 10.0 mi Calm Calm - N/A   Scattered Clouds
7:53 PM 77.0 °F - 73.9 °F 90% 30.07 in 10.0 mi WNW 5.8 mph - 0.01 in   Mostly Cloudy
8:53 PM 75.0 °F - 73.0 °F 94% 30.08 in 10.0 mi NW 8.1 mph - N/A   Partly Cloudy
9:53 PM 75.0 °F - 73.0 °F 94% 30.12 in 10.0 mi NE 5.8 mph - 0.00 in Rain Light Rain
10:53 PM 75.0 °F - 73.0 °F 94% 30.12 in 10.0 mi NNE 4.6 mph - 0.03 in   Mostly Cloudy
11:41 PM 75.0 °F - 73.9 °F 96% 30.14 in 2.5 mi WSW 4.6 mph - 0.06 in Rain Light Rain
11:53 PM 75.0 °F - 73.0 °F 94% 30.13 in 1.5 mi Calm Calm - 0.17 in Rain Heavy Rain